Tracking 23762 objects as of 19-Oct-2021
HD Live streaming from Space Station
objects crossing your sky now

FREGAT R/B

Track FREGAT R/B now!


NORAD ID: 37848
Int'l Code: 2011-060C
Perigee: 23,612.9 km
Apogee: 23,653.9 km
Inclination: 57.0 °
Period: 862.1 minutes
Semi major axis: 30004 km
RCS: 2.697 m2 (large)
Launch date: October 21, 2011
Source: Commonwealth of Independent States (former USSR) (CIS)
Launch site: FRENCH GUIANA (FRGUI)

Note: This is a ROCKET BODY
aabbcc
Your satellite tracking list
Your tracking list is empty




NASA's NSSDC Master Catalog

Two Line Element Set (TLE):
1 37848U 11060C   21291.08174263 -.00000105  00000-0  00000-0 0  9991
2 37848  57.0008  32.3090 0006845 310.9496  48.2611  1.67042002 60813
Source of the keplerian elements: AFSPC